Montreal Mirabel, Quebec

4:03 PM EDT on April 21, 2018 (GMT -0400)
Montreal Mirabel

Weather History for CYMX - June, 2013

Change the Weather History Date:

Sunday, June 23, 2013

  Actual Average Record
Temperature  
Mean Temperature 68 °F -  
Max Temperature 75 °F 75 °F 87 °F (2003)
Min Temperature 62 °F 55 °F 46 °F (2005)
Cooling Degree Days 4    
Growing Degree Days 18 (Base 50)    
Moisture  
Dew Point 66 °F    
Average Humidity 92    
Maximum Humidity 100    
Minimum Humidity 78    
Precipitation  
Precipitation 0.00 in - - ()
Sea Level Pressure  
Sea Level Pressure 30.04 in    
Wind  
Wind Speed 4 mph ()    
Max Wind Speed 9 mph    
Max Gust Speed -    
Visibility 3.7 miles    
Events Rain , Thunderstorm    
Averages and records for this station are not official NWS values.
T = Trace of Precipitation, MM = Missing Value Source: Averaged Metar Reports

Daily Weather History Graph

Daily Weather History Graph

Search for Another Location

Airport or City:

Astronomy

Jun. 23, 2013 Rise Set
Actual Time 5:07 AM EDT 8:49 PM EDT
Civil Twilight 4:28 AM EDT 9:27 PM EDT
Nautical Twilight 3:37 AM EDT 10:19 PM EDT
Astronomical Twilight 2:27 AM EDT 11:29 PM EDT
Moon 8:54 PM EDT (6/23) 5:25 AM EDT (6/23)
Length of Visible Light 16h 58m
Length of Day
15h 42m
Full, 100% of the Moon is Illuminated
Jun 23
Full
Jun 30
Last Quarter
Jul 8
New
Jul 15
First Quarter
Jul 22
Full

Hourly Weather History & Observations

Time (EDT) Temp. Dew Point Humidity Pressure Visibility Wind Dir Wind Speed Gust Speed Precip Events Conditions
12:00 AM 64.4 °F 64.4 °F 100% 30.11 in 2.0 mi NE 4.6 mph - N/A   Light Drizzle
1:00 AM 62.6 °F 62.6 °F 100% 30.10 in 2.0 mi NE 5.8 mph - N/A   Light Drizzle
2:00 AM 62.6 °F 62.6 °F 100% 30.09 in 2.0 mi NE 3.5 mph - N/A   Light Drizzle
3:00 AM 62.6 °F 62.6 °F 100% 30.08 in 2.0 mi NE 4.6 mph - N/A   Light Drizzle
4:00 AM 62.6 °F 62.6 °F 100% 30.07 in 2.5 mi ENE 3.5 mph - N/A   Light Drizzle
5:00 AM 62.6 °F 62.6 °F 100% 30.07 in 2.0 mi NE 3.5 mph - N/A   Light Drizzle
6:00 AM 62.6 °F 62.6 °F 100% 30.10 in 1.5 mi NNE 2.3 mph - N/A   Overcast
7:00 AM 64.4 °F 62.6 °F 94% 30.10 in 2.5 mi NNE 2.3 mph - N/A   Overcast
8:00 AM 64.4 °F 64.4 °F 100% 30.09 in 3.0 mi ENE 3.5 mph - N/A   Overcast
9:00 AM 66.2 °F 64.4 °F 94% 30.08 in 3.0 mi East 6.9 mph - N/A   Overcast
10:00 AM 66.2 °F 64.4 °F 94% 30.09 in 3.0 mi East 2.3 mph - N/A   Overcast
11:00 AM 68.0 °F 66.2 °F 94% 30.08 in 3.0 mi North 4.6 mph - N/A   Overcast
12:00 PM 69.8 °F 66.2 °F 88% 30.07 in 3.0 mi Variable 2.3 mph - N/A   Overcast
1:00 PM 71.6 °F 66.2 °F 83% 30.05 in 5.0 mi ENE 3.5 mph - N/A   Overcast
2:00 PM 73.4 °F 66.2 °F 78% 30.04 in 6.0 mi Calm Calm - N/A   Overcast
3:00 PM 75.2 °F 68.0 °F 78% 30.01 in 5.0 mi East 3.5 mph - N/A   Overcast
4:00 PM 73.4 °F 68.0 °F 83% 29.99 in 5.0 mi SSW 4.6 mph - N/A   Overcast
5:00 PM 73.4 °F 69.8 °F 88% 29.98 in 5.0 mi SSW 6.9 mph - N/A   Overcast
6:00 PM 73.4 °F 69.8 °F 88% 29.97 in 6.0 mi SSW 9.2 mph - N/A   Mostly Cloudy
7:00 PM 73.4 °F 68.0 °F 83% 29.97 in 6.0 mi SW 5.8 mph - N/A   Mostly Cloudy
8:00 PM 71.6 °F 68.0 °F 88% 29.98 in 6.0 mi WSW 3.5 mph - N/A   Mostly Cloudy
9:00 PM 71.6 °F 68.0 °F 88% 29.96 in 4.0 mi SSW 2.3 mph - N/A   Overcast
10:00 PM 69.8 °F 68.0 °F 94% 29.95 in 4.0 mi Calm Calm - N/A   Overcast
11:00 PM 69.8 °F 68.0 °F 94% 29.94 in 5.0 mi SE 4.6 mph - N/A   Overcast
11:36 PM 69.8 °F 68.0 °F 94% 29.93 in 5.0 mi SSW 2.3 mph - N/A Rain , Thunderstorm Light Thunderstorms and Rain